Location: Unspecified
(0.0000°N, 0.0000°E)
Time: 02:56:01
(UTC+02:00)

H-2A R/B - Visible Passes

Search period start: 30 July 2014 00:00
Search period end: 09 August 2014 00:00
Orbit: 303 x 33587 km, 28.0° (Epoch: 29 July)

Date Brightness Start Highest point End Pass type
(mag) Time Alt. Az. Time Alt. Az. Time Alt. Az.
30 Jul 5.6 00:57:10 10° WNW 01:16:28 30° NW 01:16:28 30° NW visible
30 Jul 6.3 11:42:39 10° SW 15:10:06 74° NNE 20:53:50 10° ENE visible
01 Aug 5.7 13:01:48 10° SW 14:24:54 83° W 22:12:10 18° ENE visible
03 Aug 5.0 14:23:44 10° WSW 15:52:42 58° W 23:26:12 44° NNE visible
05 Aug 5.3 15:52:31 10° WSW 00:40:11 39° NW 00:40:11 39° NW visible
07 Aug 9.8 17:56:28 10° W 18:35:03 12° W 19:28:29 10° WNW visible
08 Aug 6.2 01:52:44 10° WNW 01:54:10 12° WNW 01:54:10 12° WNW visible
08 Aug 5.8 12:23:36 10° SW 13:34:19 87° WNW 21:35:45 13° ENE visible
